Location: Ballingbuur
(53.0000°N, 5.7667°E)
Time: 07:07:07
(UTC+00:00)

Cosmos 2154 Rocket - Pass Details

Date: 29 November 2020
Orbit: 966 x 997 km, 82.9° (Epoch: 23 January)

Event Time Altitude Azimuth Distance (km) Brightness Sun altitude
Rises 05:09:21 0° 177° (S) 3,653 7.2 -19.4°
Reaches altitude 10° 05:11:51 10° 175° (S) 2,714 6.5 -19.0°
Maximum altitude 05:18:00 66° 95° (E) 1,066 4.4 -18.1°
Drops below altitude 10° 05:24:14 10° 15° (NNE) 2,753 6.4 -17.2°
Sets 05:26:47 0° 13° (NNE) 3,710 7.0 -16.8°
